Location: Csohesd
(46.2500°N, 22.6167°E)
Time: 21:11:34
(UTC+00:00)

SL-19 R/B - Pass Details

Date: 30 May 2022
Orbit: 874 x 1208 km, 100.6° (Epoch: 02 July)

Event Time Altitude Azimuth Distance (km) Brightness Sun altitude
Rises 18:59:59 0° 10° (N) 4,000 8.2 -7.4°
Reaches altitude 10° 19:02:46 10° 2° (N) 3,074 7.7 -7.7°
Maximum altitude 19:08:57 34° 301° (WNW) 1,848 6.8 -8.5°
Drops below altitude 10° 19:15:18 10° 240° (WSW) 3,149 7.3 -9.3°
Sets 19:18:11 0° 232° (SW) 4,109 7.8 -9.6°
